Location: Casteau
(50.5142°N, 4.0161°E)
Time: 23:13:39
(UTC+00:00)

Transit 2A - Pass Details

Date: 29 July 2021
Orbit: 594 x 964 km, 66.7° (Epoch: 26 September)

Event Time Altitude Azimuth Distance (km) Brightness Sun altitude
Rises 08:39:00 0° 257° (WSW) 2,875 8.6 40.6°
Reaches altitude 10° 08:41:31 10° 270° (W) 2,008 7.9 41.0°
Maximum altitude 08:45:18 25° 327° (NNW) 1,320 7.1 41.5°
Drops below altitude 10° 08:49:20 10° 23° (NNE) 2,167 8.4 42.1°
Sets 08:52:10 0° 37° (NE) 3,157 9.3 42.5°
